Terminal Aerodrome Forecast
Issued by NWS Sioux Falls, SD

Home | Current Version | Previous Version | Graphics & Text | Print | Product List | Glossary On
Versions: 1 2 3 4 5 6 7 8 9 10 11 12 13 14 15 16 17
000
FTUS43 KFSD 180540
TAFFSD
TAF
KFSD 180540Z 1806/1906 11005KT P6SM BKN100
     FM181200 14005KT P6SM SCT012 OVC050
     FM181600 16005KT P6SM -SN OVC008
     FM182200 17005KT P6SM OVC015=

USA.gov is the U.S. government's official web portal to all federal, state and local government web resources and services.